Flag for Canada Weather past 2 weeks in Windsor, Ontario, Canada

Now
N/A

Passing clouds.


Feels Like: N/A
Forecast: 68 / 81 °F
Wind: 7 mph from South

Location: Windsor Weather Station

Current Time: Aug 20, 2014 at 3:19:46 AM

Latest Report: Aug 20, 2014 at 2:48 AM


Visibility: 15 mi

Pressure: N/A

Humidity: N/A

Dew point: N/A

Location of WindsorLocation

Historic Weather in Windsor — Graph

°F

Windsor temperature yesterday

Maximum temperature yesterday: 82 °F (at 4:00 PM)
Minimum temperature yesterday: 63 °F (at 2:00 AM)
Average temperature yesterday: 71 °F

Past Weeks' High & Low Weather Summary

 TemperatureHumidityPressure
High82 °F (Aug 19, 4:00 PM)100% (Aug 5, 3:00 AM)30.16 "Hg (Aug 5, 3:00 AM)
Low50 °F (Aug 15, 5:00 AM)36% (Aug 15, 2:00 PM)29.67 "Hg (Aug 12, 3:00 PM)
Average68 °F77%29.97 "Hg
* Reported Aug 5 2:00 AM — Aug 20 2:00 AM, Windsor, Weather by CustomWeather, © 2014

Note: Actual official high and low records may vary slightly from our data, if they occured in-between our weather recording intervals... More about our weather records

Advertising

Windsor weather history for previous 24 hours

 ConditionsComfort  
Time TempWeatherWind HumidityBarometerVisibility
2:00 AM
Aug 20
68 °FPassing clouds.8 mph94%29.79 "Hg15 mi
1:00 AM66 °FPassing clouds.5 mph100%29.79 "Hg15 mi
12:00 AM66 °FPartly cloudy.No wind100%29.80 "Hg15 mi
11:00 PM
Aug 19
66 °FPassing clouds.9 mph94%29.78 "Hg15 mi
10:00 PM66 °FPassing clouds.6 mph100%29.80 "Hg15 mi
9:00 PM66 °FPartly sunny.7 mph100%29.80 "Hg10 mi
8:50 PMN/APartly sunny.7 mphN/AN/A10 mi
8:00 PM68 °FPartly sunny.5 mph94%29.76 "Hg10 mi
7:00 PM68 °FThunderstorms. More clouds than sun.9 mph94%29.80 "Hg7 mi
6:00 PM77 °FMostly cloudy.7 mph83%29.76 "Hg8 mi
5:00 PM81 °FMostly cloudy.10 mph74%29.75 "Hg12 mi
4:00 PM82 °FPartly sunny.12 mph70%29.76 "Hg12 mi
3:00 PM81 °FPartly sunny.12 mph74%29.77 "Hg15 mi
2:00 PM81 °FScattered clouds.14 mph70%29.78 "Hg15 mi
1:00 PM79 °FBroken clouds.14 mph74%29.78 "Hg15 mi
12:00 PM77 °FPassing clouds.9 mph74%29.81 "Hg15 mi
11:00 AM75 °FPartly sunny.9 mph74%29.83 "Hg15 mi
10:00 AM73 °FBroken clouds.9 mph78%29.83 "Hg15 mi
9:00 AM70 °FPassing clouds.7 mph83%29.83 "Hg15 mi
8:00 AM66 °FPartly sunny.6 mph94%29.82 "Hg12 mi
7:00 AM64 °FPassing clouds.No wind94%29.82 "Hg12 mi
6:00 AM66 °FPassing clouds.3 mph88%29.81 "Hg15 mi
5:00 AM66 °FMostly cloudy.3 mph94%29.82 "Hg15 mi
4:00 AM64 °FPassing clouds.2 mph94%29.82 "Hg15 mi
3:00 AM64 °FPassing clouds.3 mph94%29.82 "Hg15 mi
Weather by CustomWeather, © 2014

See weather overviewHow to use our weather pages